Location: ????????
(54.9045°N, 39.1041°E)
Time: 06:56:42
(UTC+00:00)

Cosmos 1461 - Visible Passes

Search period start: 16 July 2024 00:00
Search period end: 26 July 2024 00:00
Orbit: 499 x 578 km, 65.0° (Epoch: 15 July)

Date Brightness Start Highest point End Pass type
(mag) Time Alt. Az. Time Alt. Az. Time Alt. Az.
16 Jul 5.3 19:21:20 10° NW 19:24:14 20° NNE 19:27:07 10° ENE visible
16 Jul 3.7 20:59:28 10° NW 21:03:09 45° NE 21:06:51 10° ESE visible
16 Jul 3.3 22:37:42 10° WNW 22:41:13 35° SW 22:43:25 19° S visible
17 Jul 5.2 19:12:51 10° NW 19:15:48 21° NNE 19:18:45 10° ENE visible
17 Jul 3.5 20:50:56 10° NW 20:54:40 50° NE 20:58:25 10° ESE visible
17 Jul 3.5 22:29:16 10° WNW 22:32:39 30° WSW 22:34:15 22° SSW visible
18 Jul 5.0 19:04:20 10° NW 19:07:20 21° NNE 19:10:20 10° ENE visible
18 Jul 3.2 20:42:22 10° NW 20:46:09 56° NE 20:49:49 11° ESE visible
18 Jul 3.8 22:20:48 10° WNW 22:24:02 27° WSW 22:25:13 22° SSW visible
19 Jul 4.9 18:55:46 10° NW 18:58:51 22° NNE 19:01:55 10° ENE visible
19 Jul 3.0 20:33:47 10° NW 20:37:36 63° NE 20:40:52 14° ESE visible
19 Jul 4.0 22:12:20 10° WNW 22:15:24 23° WSW 22:16:16 21° SW visible
20 Jul 4.8 18:47:11 10° NW 18:50:19 23° NNE 18:53:28 10° ENE visible
20 Jul 2.8 20:25:11 10° NW 20:29:00 72° NE 20:31:57 16° SE visible
20 Jul 4.2 22:03:52 10° WNW 22:06:44 20° WSW 22:07:22 19° SW visible
21 Jul 4.6 18:38:33 10° NW 18:41:46 25° NNE 18:44:59 10° ENE visible
21 Jul 2.7 20:16:33 10° NW 20:20:23 81° NE 20:23:05 19° SE visible
21 Jul 4.4 21:55:25 10° WNW 21:58:01 18° WSW 21:58:30 17° SW visible
22 Jul 4.5 18:29:54 10° NW 18:33:11 26° NNE 18:36:28 10° E visible
22 Jul 2.6 20:07:53 10° NW 20:11:43 88° SW 20:14:16 20° SE visible
22 Jul 4.6 21:47:00 10° WNW 21:49:17 15° WSW 21:49:41 15° WSW visible
23 Jul 2.6 19:59:12 10° NW 20:03:02 78° SW 20:05:29 21° SE visible
23 Jul 4.8 21:38:38 10° W 21:40:30 13° WSW 21:40:53 13° WSW visible
24 Jul 2.7 19:50:30 10° NW 19:54:18 68° SW 19:56:42 21° SSE visible
24 Jul 5.0 21:30:24 10° W 21:31:42 11° WSW 21:32:07 11° WSW visible
25 Jul 2.8 19:41:47 10° NW 19:45:32 59° SW 19:47:57 21° SSE visible
